Weather History for KEFT - March, 2013

Change the Weather History Date:

Saturday, March 16, 2013

  Actual Average Record
Temperature  
Mean Temperature 28 °F -  
Max Temperature 32 °F 0 °F 78 °F (2012)
Min Temperature 24 °F - 12 °F (2014)
Degree Days  
Heating Degree Days 37    
Moisture  
Dew Point 24 °F    
Average Humidity 82    
Maximum Humidity 100    
Minimum Humidity 64    
Precipitation  
Precipitation 0.00 in - - ()
Sea Level Pressure  
Sea Level Pressure 29.94 in    
Wind  
Wind Speed 12 mph (North)    
Max Wind Speed 18 mph    
Max Gust Speed 22 mph    
Visibility 10 miles    
Events      
Averages and records for this station are not official NWS values.
T = Trace of Precipitation, MM = Missing Value Source: NWS Daily Summary

Daily Weather History Graph

Daily Weather History Graph

Search for Another Location

Airport or City:

Trip Planner

Search our weather history database for the weather conditions in past years. The results will help you decide how hot, cold, wet, or windy it might be!

Date:

Astronomy

Mar. 16, 2013 Rise Set
Actual Time 7:08 AM CDT 7:06 PM CDT
Civil Twilight 6:40 AM CDT 7:34 PM CDT
Nautical Twilight 6:07 AM CDT 8:07 PM CDT
Astronomical Twilight 5:33 AM CDT 8:40 PM CDT
Moon 9:31 AM CDT (3/16) No Moon Set
Length of Visible Light 12h 54m
Length of Day
11h 58m
Waxing Crescent, 23% of the Moon is Illuminated
Mar 16
Waxing Crescent
Mar 19
First Quarter
Mar 27
Full
Apr 2
Last Quarter
Apr 10
New

Hourly Weather History & Observations

Time (CDT) Temp. Windchill Dew Point Humidity Pressure Visibility Wind Dir Wind Speed Gust Speed Precip Events Conditions
12:15 AM 32.0 °F 22.1 °F 32.0 °F 100% 29.75 in 10.0 mi ENE 13.8 mph 18.4 mph N/A   Overcast
12:35 AM 32.0 °F 23.0 °F 32.0 °F 100% 29.75 in 10.0 mi NE 11.5 mph - N/A   Overcast
12:55 AM 32.0 °F 22.5 °F 30.2 °F 93% 29.77 in 10.0 mi NNE 12.7 mph - N/A   Overcast
1:15 AM 32.0 °F 21.2 °F 30.2 °F 93% 29.77 in 10.0 mi NNE 16.1 mph - N/A   Overcast
1:35 AM 32.0 °F 21.6 °F 30.2 °F 93% 29.75 in 10.0 mi NNE 15.0 mph - N/A   Overcast
1:55 AM 32.0 °F 22.1 °F 30.2 °F 93% 29.76 in 10.0 mi NE 13.8 mph - N/A   Overcast
2:15 AM 32.0 °F 21.6 °F 30.2 °F 93% 29.76 in 10.0 mi NE 15.0 mph - N/A   Overcast
2:35 AM 30.2 °F 19.3 °F 30.2 °F 100% 29.76 in 10.0 mi NNE 15.0 mph - N/A   Overcast
2:55 AM 30.2 °F 19.8 °F 30.2 °F 100% 29.75 in 10.0 mi NNE 13.8 mph - N/A   Overcast
3:15 AM 30.2 °F 18.9 °F 30.2 °F 100% 29.77 in 10.0 mi NNE 16.1 mph - N/A   Overcast
3:35 AM 30.2 °F 19.3 °F 30.2 °F 100% 29.76 in 10.0 mi NNE 15.0 mph - N/A   Overcast
3:55 AM 30.2 °F 20.2 °F 30.2 °F 100% 29.76 in 10.0 mi NNE 12.7 mph - N/A   Overcast
4:15 AM 30.2 °F 19.3 °F 30.2 °F 100% 29.75 in 10.0 mi NNE 15.0 mph - N/A   Overcast
4:35 AM 30.2 °F 20.8 °F 30.2 °F 100% 29.76 in 10.0 mi NNE 11.5 mph - N/A   Overcast
4:55 AM 30.2 °F 20.2 °F 30.2 °F 100% 29.76 in 10.0 mi NNE 12.7 mph - N/A   Overcast
5:15 AM 30.2 °F 19.8 °F 30.2 °F 100% 29.78 in 10.0 mi NNE 13.8 mph - N/A   Overcast
5:35 AM 28.4 °F 15.8 °F 28.4 °F 100% 29.79 in 10.0 mi NNE 18.4 mph - N/A   Overcast
5:55 AM 28.4 °F 17.0 °F 28.4 °F 100% 29.80 in 10.0 mi NNE 15.0 mph - N/A   Overcast
6:15 AM 28.4 °F 16.2 °F 28.4 °F 100% 29.80 in 10.0 mi NNE 17.3 mph - N/A   Overcast
6:35 AM 28.4 °F 17.0 °F 28.4 °F 100% 29.82 in 10.0 mi NNE 15.0 mph - N/A   Overcast
6:55 AM 28.4 °F 18.0 °F 28.4 °F 100% 29.83 in 10.0 mi NNE 12.7 mph - N/A   Overcast
7:15 AM 28.4 °F 16.2 °F 28.4 °F 100% 29.84 in 7.0 mi NNE 17.3 mph - N/A   Overcast
7:35 AM 28.4 °F 17.0 °F 28.4 °F 100% 29.85 in 10.0 mi North 15.0 mph 21.9 mph N/A   Overcast
7:55 AM 26.6 °F 14.7 °F 26.6 °F 100% 29.86 in 10.0 mi NNE 15.0 mph 19.6 mph N/A   Overcast
8:15 AM 26.6 °F 14.3 °F 26.6 °F 100% 29.88 in 10.0 mi North 16.1 mph 21.9 mph N/A   Overcast
8:35 AM 24.8 °F 12.9 °F 24.8 °F 100% 29.89 in 10.0 mi North 13.8 mph 19.6 mph N/A   Overcast
8:55 AM 24.8 °F 14.0 °F 24.8 °F 100% 29.91 in 10.0 mi North 11.5 mph 17.3 mph N/A   Overcast
9:15 AM 24.8 °F 13.4 °F 24.8 °F 100% 29.93 in 10.0 mi North 12.7 mph 16.1 mph N/A   Overcast
9:35 AM 24.8 °F 14.0 °F 24.8 °F 100% 29.94 in 10.0 mi North 11.5 mph 17.3 mph N/A   Overcast
9:55 AM 24.8 °F 14.0 °F 24.8 °F 100% 29.95 in 10.0 mi North 11.5 mph - N/A   Overcast
10:15 AM 24.8 °F 12.4 °F 24.8 °F 100% 29.95 in 10.0 mi North 15.0 mph - N/A   Overcast
10:35 AM 26.6 °F 15.7 °F 24.8 °F 93% 29.96 in 10.0 mi North 12.7 mph 16.1 mph N/A   Overcast
10:55 AM 26.6 °F 15.2 °F 24.8 °F 93% 29.98 in 10.0 mi North 13.8 mph 17.3 mph N/A   Overcast
11:15 AM 28.4 °F 18.0 °F 24.8 °F 86% 29.98 in 10.0 mi North 12.7 mph - N/A   Overcast
11:35 AM 28.4 °F 18.5 °F 24.8 °F 86% 29.99 in 10.0 mi North 11.5 mph - N/A   Overcast
11:55 AM 28.4 °F 18.0 °F 23.0 °F 80% 29.99 in 10.0 mi North 12.7 mph - N/A   Overcast
12:15 PM 28.4 °F 19.1 °F 21.2 °F 74% 29.99 in 10.0 mi North 10.4 mph - N/A   Overcast
12:35 PM 28.4 °F 18.5 °F 21.2 °F 74% 30.00 in 10.0 mi North 11.5 mph - N/A   Overcast
12:55 PM 30.2 °F 20.8 °F 21.2 °F 69% 30.00 in 10.0 mi North 11.5 mph - N/A   Overcast
1:15 PM 30.2 °F 21.9 °F 21.2 °F 69% 30.00 in 10.0 mi North 9.2 mph - N/A   Overcast
1:35 PM 30.2 °F 21.9 °F 21.2 °F 69% 30.00 in 10.0 mi North 9.2 mph - N/A   Overcast
1:55 PM 30.2 °F 21.9 °F 23.0 °F 75% 29.99 in 10.0 mi North 9.2 mph - N/A   Overcast
2:15 PM 30.2 °F 21.3 °F 21.2 °F 69% 29.99 in 10.0 mi North 10.4 mph - N/A   Overcast
2:35 PM 32.0 °F 25.6 °F 23.0 °F 69% 30.00 in 10.0 mi North 6.9 mph - N/A   Overcast
2:55 PM 30.2 °F 23.4 °F 21.2 °F 69% 30.00 in 10.0 mi North 6.9 mph - N/A   Overcast
3:15 PM 30.2 °F 23.4 °F 23.0 °F 75% 30.00 in 10.0 mi North 6.9 mph - N/A   Overcast
3:35 PM 32.0 °F 24.8 °F 23.0 °F 69% 30.01 in 10.0 mi NNW 8.1 mph - N/A   Overcast
3:55 PM 32.0 °F 26.4 °F 21.2 °F 64% 30.00 in 10.0 mi NNW 5.8 mph - N/A   Overcast
4:15 PM 32.0 °F 26.4 °F 21.2 °F 64% 30.00 in 10.0 mi NNW 5.8 mph - N/A   Overcast
4:35 PM 32.0 °F 25.6 °F 21.2 °F 64% 30.00 in 10.0 mi NNW 6.9 mph - N/A   Overcast
4:55 PM 32.0 °F 26.4 °F 21.2 °F 64% 30.01 in 10.0 mi NNW 5.8 mph - N/A   Overcast
5:15 PM 30.2 °F 21.9 °F 21.2 °F 69% 30.01 in 10.0 mi NW 9.2 mph - N/A   Overcast
5:35 PM 30.2 °F 22.6 °F 19.4 °F 64% 30.02 in 10.0 mi NW 8.1 mph - N/A   Overcast
5:55 PM 30.2 °F 26.7 °F 19.4 °F 64% 30.02 in 10.0 mi NW 3.5 mph - N/A   Overcast
6:15 PM 30.2 °F 26.7 °F 21.2 °F 69% 30.03 in 10.0 mi NW 3.5 mph - N/A   Overcast
6:35 PM 30.2 °F 25.4 °F 21.2 °F 69% 30.02 in 10.0 mi NNW 4.6 mph - N/A   Overcast
6:55 PM 30.2 °F 25.4 °F 19.4 °F 64% 30.02 in 10.0 mi NNW 4.6 mph - N/A   Overcast
7:15 PM 30.2 °F 25.4 °F 21.2 °F 69% 30.03 in 10.0 mi NW 4.6 mph - N/A   Overcast
7:35 PM 30.2 °F - 19.4 °F 64% 30.04 in 10.0 mi Calm Calm - N/A   Overcast
7:55 PM 30.2 °F 26.7 °F 19.4 °F 64% 30.05 in 10.0 mi West 3.5 mph - N/A   Overcast
8:15 PM 30.2 °F 25.4 °F 19.4 °F 64% 30.06 in 10.0 mi WNW 4.6 mph - N/A   Overcast
8:35 PM 30.2 °F 23.4 °F 19.4 °F 64% 30.07 in 10.0 mi West 6.9 mph - N/A   Overcast
8:55 PM 30.2 °F 25.4 °F 19.4 °F 64% 30.07 in 10.0 mi WNW 4.6 mph - N/A   Overcast
9:15 PM 30.2 °F 25.4 °F 21.2 °F 69% 30.08 in 10.0 mi WNW 4.6 mph - N/A   Overcast
9:35 PM 30.2 °F 24.3 °F 21.2 °F 69% 30.08 in 10.0 mi NW 5.8 mph - N/A   Overcast
9:55 PM 30.2 °F 22.6 °F 19.4 °F 64% 30.09 in 10.0 mi WNW 8.1 mph - N/A   Overcast
10:15 PM 30.2 °F 23.4 °F 19.4 °F 64% 30.10 in 10.0 mi NW 6.9 mph - N/A   Overcast
10:35 PM 30.2 °F 21.9 °F 19.4 °F 64% 30.10 in 10.0 mi WNW 9.2 mph - N/A   Overcast
10:55 PM 28.4 °F 17.5 °F 19.4 °F 69% 30.11 in 10.0 mi WNW 13.8 mph - N/A   Overcast
11:15 PM 28.4 °F 18.5 °F 19.4 °F 69% 30.11 in 10.0 mi NW 11.5 mph - N/A   Overcast
11:35 PM 28.4 °F 21.2 °F 19.4 °F 69% 30.11 in 10.0 mi NW 6.9 mph - N/A   Mostly Cloudy
11:55 PM 26.6 °F 18.2 °F 19.4 °F 74% 30.11 in 10.0 mi NW 8.1 mph - N/A   Scattered Clouds